Location: Recife
(8.0585°S, 34.8848°W)
Time: 04:25:36
(UTC-03:00)

Courier 1B - Pass Details

Date: 21 April 2026
Orbit: 962 x 1209 km, 28.3° (Epoch: 14 May)

Event Time Altitude Azimuth Distance (km) Brightness Sun altitude
Rises 03:43:46 0° 286° (WNW) 3,828 - -24.7°
Reaches altitude 10° 03:46:30 10° 282° (WNW) 2,912 - -24.0°
Exits shadow 03:51:23 41° 253° (WSW) 1,555 8.0 -22.8°
Maximum altitude 03:53:30 53° 206° (SSW) 1,358 8.0 -22.3°
Drops below altitude 10° 04:00:56 10° 130° (SE) 3,089 10.6 -20.5°
Sets 04:03:55 0° 125° (SE) 4,077 11.4 -19.7°
